Northolt, United Kingdom

5:35 PM BST on April 26, 2017 (GMT +0100)
Northolt Air Base

Weather History for EGWU - March, 2013

Change the Weather History Date:

Sunday, March 3, 2013

  Actual Average Record
Temperature  
Mean Temperature 36 °F -  
Max Temperature 48 °F 51 °F 59 °F (1998)
Min Temperature 24 °F 38 °F 24 °F (2004)
Degree Days  
Heating Degree Days 29    
Moisture  
Dew Point 30 °F    
Average Humidity 75    
Maximum Humidity 100    
Minimum Humidity 41    
Precipitation  
Precipitation 0.00 in - - ()
Sea Level Pressure  
Sea Level Pressure 30.20 in    
Wind  
Wind Speed 5 mph ()    
Max Wind Speed 16 mph    
Max Gust Speed -    
Visibility 6.6 miles    
Events      
Averages and records for this station are not official NWS values.
T = Trace of Precipitation, MM = Missing Value Source: Averaged Metar Reports

Daily Weather History Graph

Daily Weather History Graph

Search for Another Location

Airport or City:

Trip Planner

Search our weather history database for the weather conditions in past years. The results will help you decide how hot, cold, wet, or windy it might be!

Date:

Astronomy

Mar. 03, 2013 Rise Set
Actual Time 6:42 AM GMT 5:45 PM GMT
Civil Twilight 6:08 AM GMT 6:19 PM GMT
Nautical Twilight 5:30 AM GMT 6:57 PM GMT
Astronomical Twilight 4:51 AM GMT 7:36 PM GMT
Moon No Moon Rise 8:59 AM GMT (3/3)
Length of Visible Light 12h 10m
Length of Day
11h 03m
Waning Gibbous, 66% of the Moon is Illuminated
Mar 3
Waning Gibbous
Mar 4
Last Quarter
Mar 11
New
Mar 19
First Quarter
Mar 27
Full

Hourly Weather History & Observations

Time (GMT) Temp. Windchill Dew Point Humidity Pressure Visibility Wind Dir Wind Speed Gust Speed Precip Events Conditions
12:50 AM 26.6 °F - 24.8 °F 93% 30.27 in 6.2 mi NNW 1.2 mph - N/A   Unknown
1:50 AM 26.6 °F 22.6 °F 24.8 °F 93% 30.27 in 5.6 mi North 3.5 mph - N/A   Mostly Cloudy
2:50 AM 27 °F - 25 °F 91% 30.29 in 4 mi North 1.2 mph - -  
2:50 AM 26.6 °F - 24.8 °F 93% 30.27 in 4.3 mi North 1.2 mph - N/A   Unknown
3:50 AM 24.8 °F - 23.0 °F 93% 30.27 in 5.0 mi NW 1.2 mph - N/A   Partly Cloudy
4:50 AM 26.6 °F - 26.6 °F 100% 30.24 in 5.0 mi NNW 2.3 mph - N/A   Mostly Cloudy
5:50 AM 29 °F - 28 °F 93% 30.27 in 5 mi Calm Calm - -   Overcast
5:50 AM 28.4 °F - 28.4 °F 100% 30.24 in 5.0 mi Calm Calm - N/A   Overcast
6:50 AM 30.2 °F 26.7 °F 28.4 °F 93% 30.24 in 5.6 mi North 3.5 mph - N/A   Haze
7:50 AM 32.0 °F - 32.0 °F 100% 30.24 in 5.0 mi NNW 1.2 mph - N/A   Haze
8:50 AM 35 °F - 30 °F 76% 30.27 in 7 mi NNW 2.3 mph - -   Mostly Cloudy
8:50 AM 35.6 °F - 30.2 °F 81% 30.24 in 6.2 mi NNW 2.3 mph - N/A   Mostly Cloudy
9:50 AM 39.2 °F 35.9 °F 30.2 °F 70% 30.24 in 6.2 mi NE 4.6 mph - N/A   Mostly Cloudy
10:50 AM 42.8 °F 37.0 °F 30.2 °F 61% 30.24 in 6.2 mi ESE 10.4 mph - N/A   Mostly Cloudy
11:50 AM 44 °F - 31 °F 50% 30.25 in 16 mi SE 11.5 mph - -   Mostly Cloudy
11:50 AM 44.6 °F 38.8 °F 32.0 °F 61% 30.24 in 6.2 mi SE 11.5 mph - N/A   Mostly Cloudy
12:50 PM 44.6 °F 39.2 °F 32.0 °F 61% 30.21 in 6.2 mi ESE 10.4 mph - N/A   Overcast
1:50 PM 44.6 °F 38.4 °F 32.0 °F 61% 30.18 in 6.2 mi ESE 12.7 mph - N/A   Mostly Cloudy
2:50 PM 47 °F - 31 °F 41% 30.20 in 31 mi SE 13.8 mph - -   Mostly Cloudy
2:50 PM 46.4 °F 40.4 °F 30.2 °F 53% 30.18 in 6.2 mi SE 13.8 mph - N/A   Mostly Cloudy
3:50 PM 48.2 °F - 30.2 °F 50% 30.15 in 6.2 mi SE 16.1 mph - N/A   Mostly Cloudy
4:50 PM 46.4 °F 40.4 °F 30.2 °F 53% 30.15 in 6.2 mi SE 13.8 mph - N/A   Mostly Cloudy
5:50 PM 43 °F - 32 °F 55% 30.16 in 22 mi ESE 11.5 mph - -   Partly Cloudy
5:50 PM 42.8 °F 36.6 °F 32.0 °F 66% 30.15 in 6.2 mi ESE 11.5 mph - N/A   Scattered Clouds
6:50 PM 41.0 °F 35.2 °F 33.8 °F 76% 30.15 in 6.2 mi ESE 9.2 mph - N/A   Partly Cloudy
7:50 PM 41.0 °F 34.3 °F 33.8 °F 76% 30.15 in 6.2 mi ESE 11.5 mph - N/A   Scattered Clouds
8:50 PM 39 °F - 32 °F 69% 30.16 in 13 mi East 6.9 mph - -   Scattered Clouds
8:50 PM 39.2 °F 34.2 °F 32.0 °F 75% 30.15 in 6.2 mi East 6.9 mph - N/A   Partly Cloudy
9:50 PM 39.2 °F 34.2 °F 33.8 °F 81% 30.12 in 6.2 mi East 6.9 mph - N/A   Mostly Cloudy
10:50 PM 39.2 °F 33.0 °F 33.8 °F 81% 30.12 in 6.2 mi SE 9.2 mph - N/A   Mostly Cloudy
11:50 PM 37 °F - 31 °F 73% 30.12 in 11 mi ESE 6.9 mph - -   Scattered Clouds
11:50 PM 37.4 °F 32.1 °F 32.0 °F 81% 30.09 in 6.2 mi ESE 6.9 mph - N/A   Partly Cloudy